Simultaneous Nadir Overpasses (SNOs) Predictions

Prediction of SNOs between AQUA and METOP-B Satellite Orbit:

Table of predicted SNOs for the next 14.0 days since TLE Epoch: 12/14/2012
Index Date (AQUA) Time (AQUA) Lat,Lon (AQUA) SZA (AQUA ) Date (METOP-B) Time (METOP-B) Lat,Lon (METOP-B) SZA (METOP-B ) Distance(km) Time Diff (sec)
1 12/16/2012 17:40:46 -73.73, 89.15 82.97 12/16/2012 17:39:45 -73.72, 89.23 82.97 2.73 61
2 12/16/2012 18:30:14 73.75,-103.26 97.06 12/16/2012 18:30:23 73.77,-103.31 97.08 3.02 9
3 12/16/2012 19:19:48 -74.19, 63.40 82.49 12/16/2012 19:20:57 -74.20, 65.05 82.51 49.98 69
4 12/19/2012 13:15:04 -73.69, 155.67 82.93 12/19/2012 13:14:08 -73.70, 155.60 82.91 2.91 56
5 12/19/2012 14:04:33 73.76, -36.86 97.15 12/19/2012 14:04:46 73.76, -36.94 97.15 2.44 13
6 12/19/2012 14:54:10 -74.35, 129.45 82.24 12/19/2012 14:55:17 -74.32, 131.79 82.31 70.46 67
7 12/22/2012 08:49:25 -73.72,-137.98 82.88 12/22/2012 08:48:31 -73.73,-137.93 82.87 1.95 54
8 12/22/2012 09:38:54 73.80, 29.48 97.21 12/22/2012 09:39:09 73.78, 29.53 97.19 2.46 15
9 12/22/2012 10:28:32 -74.43,-164.33 82.13 12/22/2012 10:29:38 -74.44,-161.48 82.18 84.85 66
10 12/25/2012 04:23:46 -73.72, -71.57 82.92 12/25/2012 04:22:55 -73.69, -71.60 82.94 3.02 51
11 12/25/2012 05:13:15 73.80, 95.88 97.17 12/25/2012 05:13:32 73.80, 95.99 97.16 3.24 17
12 12/25/2012 06:02:55 -74.53, -98.16 82.06 12/25/2012 06:04:00 -74.51, -94.91 82.17 96.63 65
13 12/27/2012 23:58:06 -73.69, -5.09 83.06 12/27/2012 23:57:17 -73.70, -5.17 83.04 2.62 49
14 12/28/2012 00:47:35 73.78, 162.35 97.04 12/28/2012 00:47:55 73.76, 162.30 97.02 2.71 20




NCC Satellite Simultaneous Nadir Overpasses (SNOs) Prediction Service
